DateTimeUTC,F1_A11,F1_S11,BsB_S11,BsG_S11,BsR_S11,BbsB_S11,BbsG_S11,BbsR_S11,BaB_A11,BaG_A11,BaR_A11,Tu_S11,T_S11,Uu_S11,U_S11,P_S11,T1_A11
2021-09-03T19:00:00Z,00000200,20000000,,,,,,,0000.32,0000.18,-000.06,20.0,26.6,07.2,04.8,0667.9,31.2
2021-09-03T19:01:00Z,00000200,20000000,,,,,,,0000.01,0000.05,0000.17,20.0,26.6,07.2,04.8,0667.9,31.2
2021-09-03T19:02:00Z,00000200,20000000,,,,,,,0000.01,0000.12,0000.03,20.0,26.6,07.2,04.8,0667.9,31.2
2021-09-03T19:03:00Z,00000200,60000000,,,,,,,0000.05,-000.10,-000.01,20.0,26.6,07.2,04.8,0667.9,31.2
2021-09-03T19:04:00Z,00000200,40000000,0000.33,-000.10,0000.09,-000.15,0000.23,0000.10,0000.04,0000.14,-000.03,20.1,26.5,07.2,04.9,0668.8,31.2
2021-09-03T19:05:00Z,00000200,00000000,0000.54,-000.03,0000.07,-000.13,-000.10,0000.11,-000.06,-000.29,-000.11,20.2,26.4,07.3,05.0,0668.9,31.2
2021-09-03T19:06:00Z,00000200,00000000,0000.14,0000.13,0000.26,-000.37,0000.06,0000.12,-000.11,-000.11,0000.09,20.2,26.4,07.2,05.0,0668.9,31.2
2021-09-03T19:07:00Z,00000200,00000000,-000.27,0000.03,0000.19,-000.65,0000.14,0000.29,0000.17,0000.61,0000.02,20.2,26.4,07.3,05.0,0668.8,31.2
2021-09-03T19:08:00Z,00000200,00000000,0000.24,0000.24,0000.35,-000.13,0000.13,0000.20,0000.19,0000.03,0000.06,20.2,26.4,07.3,05.0,0668.9,31.2
2021-09-03T19:09:00Z,00000200,00000000,0000.13,0000.04,-000.13,-000.37,0000.14,-000.01,-000.19,-000.20,-000.10,20.2,26.4,07.4,05.1,0668.9,31.2
2021-09-03T19:10:00Z,00000200,00000000,0000.01,0000.21,-000.10,-000.44,0000.26,-000.22,0000.17,-000.00,0000.20,20.2,26.4,07.3,05.0,0668.8,31.2
2021-09-03T19:11:00Z,00000200,00000000,0000.59,-000.24,0000.14,-001.18,0000.10,0000.08,-000.10,-000.25,-000.27,20.2,26.4,07.4,05.1,0668.8,31.2
2021-09-03T19:12:00Z,00000200,00000000,0000.63,0000.18,0000.58,0000.31,0000.05,-000.02,0000.13,0000.34,0000.19,20.2,26.4,07.5,05.1,0668.8,31.2
2021-09-03T19:13:00Z,00000200,00000000,0000.18,0000.11,-000.02,-000.19,0000.37,-000.15,-000.09,0000.12,0000.02,20.2,26.4,07.5,05.2,0668.8,31.2
2021-09-03T19:14:00Z,00000200,00000000,-000.20,0000.08,0000.30,-000.14,-000.08,0000.19,-000.06,-000.12,-000.03,20.1,26.4,07.4,05.1,0668.9,31.2
2021-09-03T19:15:00Z,00000200,00000000,-000.46,0000.04,0000.20,0000.29,0000.24,-000.27,0000.01,-000.01,0000.19,20.1,26.4,07.4,05.1,0668.9,31.2
2021-09-03T19:16:00Z,00000200,00000000,-000.58,0000.46,-000.31,-000.26,-000.02,0000.04,0000.12,0000.07,-000.07,20.1,26.4,07.6,05.2,0668.9,31.2
2021-09-03T19:17:00Z,00000200,00000000,0000.70,-000.22,0000.12,-000.19,0000.24,0000.08,-000.08,0000.17,0000.10,20.1,26.3,07.5,05.1,0668.8,31.2
2021-09-03T19:18:00Z,00000200,00000000,-000.61,0000.25,-000.00,0000.32,0000.00,0000.16,0000.24,-000.13,-000.22,20.1,26.3,07.5,05.2,0668.8,31.2
2021-09-03T19:19:00Z,00000200,00000000,-000.32,0000.04,-000.24,-000.33,0000.08,0000.16,-000.11,0000.19,0000.30,20.1,26.3,07.5,05.2,0668.8,31.2
2021-09-03T19:20:00Z,00000200,00000000,0000.33,-000.06,0000.26,0000.26,0000.23,0000.37,0000.02,-000.02,-000.15,20.1,26.3,07.5,05.2,0668.8,31.2
2021-09-03T19:21:00Z,00000200,00000000,-000.29,0000.35,0000.13,-000.60,0000.16,-000.06,-000.02,0000.06,-000.12,20.1,26.3,07.6,05.2,0668.8,31.2
2021-09-03T19:22:00Z,00000200,00000000,0000.52,-000.03,0000.22,-000.05,0000.08,0000.08,0000.44,-000.19,0000.31,20.1,26.3,07.6,05.2,0668.8,31.2
2021-09-03T19:23:00Z,00000200,00000000,0000.29,0000.45,-000.07,-000.40,0000.13,-000.01,-000.14,0000.20,0000.04,20.1,26.3,07.6,05.3,0668.8,31.2
2021-09-03T19:24:00Z,00000200,00000000,0000.06,-000.00,-000.01,0000.24,-000.04,0000.23,0000.09,-000.34,-000.22,20.1,26.3,07.6,05.3,0668.8,31.2
2021-09-03T19:25:00Z,00000200,00000000,0000.71,0000.01,0000.13,-000.16,0000.31,0000.11,-000.18,0000.35,0000.06,20.1,26.3,07.7,05.3,0668.8,31.1
2021-09-03T19:26:00Z,00000200,00000000,-000.61,0000.42,0000.18,-000.02,0000.14,0000.08,0000.23,-000.14,0000.16,20.1,26.3,07.6,05.3,0668.8,31.1
2021-09-03T19:27:00Z,00000200,00000000,0000.12,0000.42,0000.27,-000.62,0000.02,0000.31,0000.05,-000.05,-000.12,20.1,26.3,07.6,05.2,0668.8,31.1
2021-09-03T19:28:00Z,00000200,00000000,0000.34,0000.23,0000.25,-001.06,0000.28,0000.35,-000.05,0000.18,0000.05,20.1,26.3,07.7,05.3,0668.8,31.2
2021-09-03T19:29:00Z,00000200,00000000,-000.42,0000.23,0000.02,-000.35,0000.15,-000.17,-000.22,0000.02,0000.02,20.1,26.3,07.6,05.2,0668.8,31.2
2021-09-03T19:30:00Z,00000200,00000000,0000.50,-000.27,0000.02,-000.31,-000.03,0000.29,0000.06,0000.05,0000.01,20.1,26.3,07.7,05.3,0668.9,31.1
2021-09-03T19:31:00Z,00000200,00000000,0000.20,-000.13,0000.15,-000.12,0000.11,-000.20,0000.18,-000.16,0000.00,20.1,26.3,07.5,05.2,0668.9,31.1
2021-09-03T19:32:00Z,00000200,00000000,-000.42,0000.21,0000.13,0000.03,0000.22,-000.05,-000.12,0000.14,-000.02,20.1,26.3,07.6,05.3,0668.9,31.1
2021-09-03T19:33:00Z,00000200,00000000,0000.27,0000.50,0000.30,-000.28,-000.14,-000.04,0000.05,-000.18,-000.01,20.1,26.3,07.7,05.3,0668.8,31.2
2021-09-03T19:34:00Z,00000200,00000000,0000.24,-000.38,-000.13,-000.30,0000.27,-000.22,-000.21,0000.15,-000.02,20.1,26.3,07.6,05.2,0668.8,31.1
2021-09-03T19:35:00Z,00000200,00000000,0000.71,0000.24,0000.07,-000.72,-000.02,0000.35,0000.09,0000.21,0000.08,20.1,26.3,07.6,05.2,0668.8,31.1
2021-09-03T19:36:00Z,00000200,00000000,0000.68,0000.02,-000.08,-000.22,0000.17,0000.00,0000.37,-000.36,0000.07,20.1,26.3,07.6,05.2,0668.8,31.2
2021-09-03T19:37:00Z,00000200,00000000,-000.04,0000.17,0000.29,0000.17,0000.32,-000.06,0000.10,0000.30,0000.06,20.1,26.2,07.7,05.3,0668.8,31.2
2021-09-03T19:38:00Z,00000200,00000000,0000.39,0000.28,-000.10,-000.69,0000.19,-000.04,-000.11,-000.09,0000.27,20.1,26.2,07.6,05.3,0668.8,31.1
2021-09-03T19:39:00Z,00000200,00000000,0000.10,0000.36,0000.29,-001.11,-000.08,0000.08,-000.13,-000.07,-000.09,20.1,26.2,07.7,05.3,0668.8,31.2
2021-09-03T19:40:00Z,00000200,00000000,-000.38,0000.07,0000.29,-000.23,0000.16,0000.26,0000.09,0000.03,-000.23,20.1,26.2,07.7,05.3,0668.8,31.1
2021-09-03T19:41:00Z,00000200,00000000,0000.75,0000.18,0000.41,-000.45,0000.37,0000.36,0000.04,0000.14,-000.00,20.1,26.2,07.7,05.3,0668.8,31.1
2021-09-03T19:42:00Z,00000200,00000000,0000.35,0000.07,0000.23,-000.34,0000.20,-000.07,-000.01,0000.10,0000.27,20.1,26.2,07.7,05.3,0668.8,31.1
2021-09-03T19:43:00Z,00000200,00000000,-000.28,-000.17,0000.03,-000.09,-000.12,0000.07,0000.30,0000.35,0000.26,20.1,26.2,07.7,05.3,0668.8,31.1
2021-09-03T19:44:00Z,00000200,00000000,0000.60,0000.20,0000.22,0000.25,0000.18,0000.16,-000.52,-000.42,-000.20,20.1,26.2,07.7,05.3,0668.8,31.2
2021-09-03T19:45:00Z,00000200,00000000,0000.24,0000.28,0000.48,-000.27,0000.08,0000.13,0000.45,0000.07,0000.13,20.1,26.2,07.8,05.4,0668.8,31.1
2021-09-03T19:46:00Z,00000200,00000000,0000.29,0000.14,0000.34,0000.36,0000.09,0000.18,-000.08,-000.03,-000.41,20.1,26.2,07.7,05.3,0668.8,31.2
2021-09-03T19:47:00Z,00000200,00000000,-000.19,0000.21,0000.15,-000.51,0000.21,-000.03,0000.36,0000.34,0000.36,20.1,26.2,07.9,05.4,0668.8,31.1
2021-09-03T19:48:00Z,00000200,00000000,0000.48,0000.33,0000.26,-000.07,0000.38,0000.15,0000.07,0000.16,0000.21,20.0,26.2,07.8,05.4,0668.7,31.2
2021-09-03T19:49:00Z,00000200,00000000,0000.22,0000.17,-000.03,-000.32,-000.05,-000.06,-000.19,-000.09,-000.19,20.0,26.2,07.9,05.5,0668.7,31.2
2021-09-03T19:50:00Z,00000200,00000000,0000.75,0000.46,0000.25,-000.69,0000.28,-000.06,0000.11,0000.29,-000.15,20.1,26.2,08.0,05.5,0668.8,31.1
2021-09-03T19:51:00Z,00000200,00000000,0000.23,0000.30,-000.00,-000.48,-000.06,0000.02,-000.08,-000.17,0000.05,20.0,26.2,07.9,05.5,0668.8,31.1
2021-09-03T19:52:00Z,00000200,00000000,-000.04,0000.18,-000.15,-000.60,0000.60,-000.14,0000.14,-000.02,-000.03,20.0,26.2,08.0,05.5,0668.8,31.1
2021-09-03T19:53:00Z,00000200,00000000,0000.69,0000.25,0000.25,-000.12,0000.02,0000.08,-000.09,-000.30,0000.45,20.0,26.2,07.9,05.5,0668.8,31.1
2021-09-03T19:54:00Z,00000200,00000000,-000.08,0000.28,0000.40,-000.31,0000.30,-000.41,0000.01,0000.06,-000.27,20.0,26.2,07.9,05.5,0668.8,31.2
2021-09-03T19:55:00Z,00000200,00000000,0000.86,0000.25,0000.43,-000.59,0000.31,0000.11,-000.04,-000.14,0000.07,20.0,26.2,07.9,05.5,0668.8,31.1
2021-09-03T19:56:00Z,00000200,00000000,0001.12,0000.52,0000.20,-000.49,0000.20,0000.13,-000.20,0000.24,-000.21,20.0,26.2,07.9,05.5,0668.8,31.2
2021-09-03T19:57:00Z,00000200,40000000,,,,,,,-000.02,-000.07,0000.03,20.1,26.2,07.5,05.2,0668.7,31.1
2021-09-03T19:58:00Z,00000200,60000000,,,,,,,0000.04,-000.13,0000.29,19.8,26.3,07.9,05.3,0667.8,31.2
2021-09-03T19:59:00Z,00000200,20000000,,,,,,,-000.08,0000.18,-000.29,19.8,26.4,07.9,05.3,0667.8,31.1
